Year,Month,Day,Hour,Minute,Value (Times are PST for windspeed in km/hr)
2022,04,05,00,00,3.60
2022,04,05,00,01,2.70
2022,04,05,00,02,4.70
2022,04,05,00,03,2.10
2022,04,05,00,04,5.10
2022,04,05,00,05,2.10
2022,04,05,00,06,3.40
2022,04,05,00,07,2.40
2022,04,05,00,08,0.90
2022,04,05,00,09,0.80
2022,04,05,00,10,0.10
2022,04,05,00,11,2.40
2022,04,05,00,12,2.10
2022,04,05,00,13,3.80
2022,04,05,00,14,1.30
2022,04,05,00,15,0.70
2022,04,05,00,16,2.20
2022,04,05,00,17,5.80
2022,04,05,00,18,1.80
2022,04,05,00,19,5.40
2022,04,05,00,20,5.20
2022,04,05,00,21,4.70
2022,04,05,00,22,6.50
2022,04,05,00,23,5.60
2022,04,05,00,24,4.70
2022,04,05,00,25,1.90
2022,04,05,00,26,2.80
2022,04,05,00,27,9.80
2022,04,05,00,28,7.70
2022,04,05,00,29,5.70
2022,04,05,00,30,3.00
2022,04,05,00,31,3.90
2022,04,05,00,32,5.20
2022,04,05,00,33,3.50
2022,04,05,00,34,0.70
2022,04,05,00,35,1.90
2022,04,05,00,36,2.40
2022,04,05,00,37,2.90
2022,04,05,00,38,2.20
2022,04,05,00,39,1.60
2022,04,05,00,40,0.30
2022,04,05,00,41,3.70
2022,04,05,00,42,3.80
2022,04,05,00,43,4.60
2022,04,05,00,44,5.70
2022,04,05,00,45,5.40
2022,04,05,00,46,5.70
2022,04,05,00,47,5.10
2022,04,05,00,48,10.40
2022,04,05,00,49,6.70
2022,04,05,00,50,6.40
2022,04,05,00,51,10.20
2022,04,05,00,52,6.30
2022,04,05,00,53,6.70
2022,04,05,00,54,9.30
2022,04,05,00,55,11.80
2022,04,05,00,56,7.50
2022,04,05,00,57,4.80
2022,04,05,00,58,6.70
2022,04,05,00,59,5.20
2022,04,05,01,00,6.10
2022,04,05,01,01,5.60
2022,04,05,01,02,8.80
2022,04,05,01,03,9.50
2022,04,05,01,04,7.60
2022,04,05,01,05,8.60
2022,04,05,01,06,10.50
2022,04,05,01,07,2.50
2022,04,05,01,08,1.60
2022,04,05,01,09,3.30
2022,04,05,01,10,7.80
2022,04,05,01,11,7.50
2022,04,05,01,12,6.70
2022,04,05,01,13,3.60
2022,04,05,01,14,5.70
2022,04,05,01,15,4.10
2022,04,05,01,16,5.50
2022,04,05,01,17,1.90
2022,04,05,01,18,1.90
2022,04,05,01,19,1.90
2022,04,05,01,20,2.30
2022,04,05,01,21,3.30
2022,04,05,01,22,5.60
2022,04,05,01,23,4.70
2022,04,05,01,24,4.90
2022,04,05,01,25,2.30
2022,04,05,01,26,1.40
2022,04,05,01,27,2.60
2022,04,05,01,28,2.50
2022,04,05,01,29,2.30
2022,04,05,01,30,1.90
2022,04,05,01,31,1.90
2022,04,05,01,32,2.40
2022,04,05,01,33,0.50
2022,04,05,01,34,0.00
2022,04,05,01,35,0.00
2022,04,05,01,36,0.00
2022,04,05,01,37,1.00
2022,04,05,01,38,0.20
2022,04,05,01,39,0.60
2022,04,05,01,40,1.00
2022,04,05,01,41,1.90
2022,04,05,01,42,2.50
2022,04,05,01,43,2.00
2022,04,05,01,44,1.90
2022,04,05,01,45,0.40
2022,04,05,01,46,0.00
2022,04,05,01,47,0.10
2022,04,05,01,48,4.20
2022,04,05,01,49,7.30
2022,04,05,01,50,6.80
2022,04,05,01,51,2.50
2022,04,05,01,52,0.80
2022,04,05,01,53,4.90
2022,04,05,01,54,4.90
2022,04,05,01,55,4.50
2022,04,05,01,56,8.20
2022,04,05,01,57,12.00
2022,04,05,01,58,10.20
2022,04,05,01,59,5.00
2022,04,05,02,00,2.20
2022,04,05,02,01,2.90
2022,04,05,02,02,2.50
2022,04,05,02,03,2.70
2022,04,05,02,04,6.50
2022,04,05,02,05,6.00
2022,04,05,02,06,5.50
2022,04,05,02,07,4.70
2022,04,05,02,08,4.30
2022,04,05,02,09,1.80
2022,04,05,02,10,1.90
2022,04,05,02,11,4.90
2022,04,05,02,12,3.00
2022,04,05,02,13,3.40
2022,04,05,02,14,1.60
2022,04,05,02,15,3.40
2022,04,05,02,16,1.90
2022,04,05,02,17,1.60
2022,04,05,02,18,2.70
2022,04,05,02,19,3.10
2022,04,05,02,20,1.90
2022,04,05,02,21,0.70
2022,04,05,02,22,0.90
2022,04,05,02,23,3.00
2022,04,05,02,24,4.00
2022,04,05,02,25,2.70
2022,04,05,02,26,1.70
2022,04,05,02,27,1.20
2022,04,05,02,28,0.50
2022,04,05,02,29,0.20
2022,04,05,02,30,0.00
2022,04,05,02,31,2.50
2022,04,05,02,32,3.40
2022,04,05,02,33,2.50
2022,04,05,02,34,2.10
2022,04,05,02,35,3.30
2022,04,05,02,36,4.60
2022,04,05,02,37,2.70
2022,04,05,02,38,0.30
2022,04,05,02,39,2.60
2022,04,05,02,40,2.20
2022,04,05,02,41,3.30
2022,04,05,02,42,3.30
2022,04,05,02,43,1.50
2022,04,05,02,44,0.10
2022,04,05,02,45,2.40
2022,04,05,02,46,5.40
2022,04,05,02,47,2.90
2022,04,05,02,48,0.50
2022,04,05,02,49,0.90
2022,04,05,02,50,2.30
2022,04,05,02,51,4.00
2022,04,05,02,52,1.80
2022,04,05,02,53,0.00
2022,04,05,02,54,0.20
2022,04,05,02,55,2.00
2022,04,05,02,56,0.80
2022,04,05,02,57,0.00
2022,04,05,02,58,1.40
2022,04,05,02,59,3.00
2022,04,05,03,00,2.10
2022,04,05,03,01,2.50
2022,04,05,03,02,1.10
2022,04,05,03,03,1.70
2022,04,05,03,04,4.20
2022,04,05,03,05,3.10
2022,04,05,03,06,3.50
2022,04,05,03,07,7.90
2022,04,05,03,08,6.20
2022,04,05,03,09,3.80
2022,04,05,03,10,2.20
2022,04,05,03,11,3.80
2022,04,05,03,12,3.50
2022,04,05,03,13,2.40
2022,04,05,03,14,2.30
2022,04,05,03,15,5.30
2022,04,05,03,16,9.20
2022,04,05,03,17,5.00
2022,04,05,03,18,3.10
2022,04,05,03,19,4.90
2022,04,05,03,20,3.90
2022,04,05,03,21,7.20
2022,04,05,03,22,10.50
2022,04,05,03,23,5.30
2022,04,05,03,24,3.80
2022,04,05,03,25,2.30
2022,04,05,03,26,2.80
2022,04,05,03,27,4.90
2022,04,05,03,28,3.80
2022,04,05,03,29,2.00
2022,04,05,03,30,1.70
2022,04,05,03,31,1.40
2022,04,05,03,32,0.00
2022,04,05,03,33,1.50
2022,04,05,03,34,2.40
2022,04,05,03,35,1.50
2022,04,05,03,36,4.30
2022,04,05,03,37,2.80
2022,04,05,03,38,1.50
2022,04,05,03,39,3.20
2022,04,05,03,40,4.30
2022,04,05,03,41,0.80
2022,04,05,03,42,0.00
2022,04,05,03,43,0.00
2022,04,05,03,44,5.50
2022,04,05,03,45,3.30
2022,04,05,03,46,2.70
2022,04,05,03,47,2.10
2022,04,05,03,48,0.90
2022,04,05,03,49,0.10
2022,04,05,03,50,1.50
2022,04,05,03,51,1.50
2022,04,05,03,52,3.70
2022,04,05,03,53,2.80
2022,04,05,03,54,2.00
2022,04,05,03,55,0.20
2022,04,05,03,56,0.00
2022,04,05,03,57,1.50
2022,04,05,03,58,2.20
2022,04,05,03,59,0.20
2022,04,05,04,00,1.90
2022,04,05,04,01,2.70
2022,04,05,04,02,1.20
2022,04,05,04,03,2.50
2022,04,05,04,04,3.50
2022,04,05,04,05,4.70
2022,04,05,04,06,2.40
2022,04,05,04,07,2.80
2022,04,05,04,08,3.20
2022,04,05,04,09,2.80
2022,04,05,04,10,2.30
2022,04,05,04,11,2.20
2022,04,05,04,12,1.90
2022,04,05,04,13,1.40
2022,04,05,04,14,1.50
2022,04,05,04,15,2.00
2022,04,05,04,16,0.20
2022,04,05,04,17,0.20
2022,04,05,04,18,2.70
2022,04,05,04,19,3.20
2022,04,05,04,20,3.70
2022,04,05,04,21,2.90
2022,04,05,04,22,1.40
2022,04,05,04,23,0.40
2022,04,05,04,24,0.20
2022,04,05,04,25,0.00
2022,04,05,04,26,0.10
2022,04,05,04,27,0.00
2022,04,05,04,28,0.20
2022,04,05,04,29,1.30
2022,04,05,04,30,0.20
2022,04,05,04,31,0.00
2022,04,05,04,32,0.00
2022,04,05,04,33,0.00
2022,04,05,04,34,0.00
2022,04,05,04,35,0.00
2022,04,05,04,36,0.10
2022,04,05,04,37,2.40
2022,04,05,04,38,2.60
2022,04,05,04,39,1.20
2022,04,05,04,40,1.70
2022,04,05,04,41,0.80
2022,04,05,04,42,1.50
2022,04,05,04,43,0.90
2022,04,05,04,44,1.70
2022,04,05,04,45,1.40
2022,04,05,04,46,0.20
2022,04,05,04,47,1.50
2022,04,05,04,48,0.90
2022,04,05,04,49,0.60
2022,04,05,04,50,1.50
2022,04,05,04,51,1.50
2022,04,05,04,52,1.90
2022,04,05,04,53,4.10
2022,04,05,04,54,1.90
2022,04,05,04,55,0.70
2022,04,05,04,56,3.40
2022,04,05,04,57,2.70
2022,04,05,04,58,1.80
2022,04,05,04,59,3.00
2022,04,05,05,00,4.50
2022,04,05,05,01,5.60
2022,04,05,05,02,4.00
2022,04,05,05,03,2.00
2022,04,05,05,04,3.00
2022,04,05,05,05,3.20
2022,04,05,05,06,2.60
2022,04,05,05,07,2.80
2022,04,05,05,08,4.90
2022,04,05,05,09,4.70
2022,04,05,05,10,5.00
2022,04,05,05,11,4.00
2022,04,05,05,12,2.70
2022,04,05,05,13,3.90
2022,04,05,05,14,3.50
2022,04,05,05,15,5.10
2022,04,05,05,16,2.80
2022,04,05,05,17,2.60
2022,04,05,05,18,2.10
2022,04,05,05,19,3.80
2022,04,05,05,20,3.50
2022,04,05,05,21,3.30
2022,04,05,05,22,1.70
2022,04,05,05,23,1.70
2022,04,05,05,24,3.20
2022,04,05,05,25,2.70
2022,04,05,05,26,3.00
2022,04,05,05,27,1.10
2022,04,05,05,28,0.20
2022,04,05,05,29,3.10
2022,04,05,05,30,8.60
2022,04,05,05,31,3.50
2022,04,05,05,32,3.00
2022,04,05,05,33,3.30
2022,04,05,05,34,2.90
2022,04,05,05,35,2.00
2022,04,05,05,36,1.50
2022,04,05,05,37,1.40
2022,04,05,05,38,2.40
2022,04,05,05,39,1.70
2022,04,05,05,40,2.80
2022,04,05,05,41,3.80
2022,04,05,05,42,3.50
2022,04,05,05,43,1.80
2022,04,05,05,44,3.20
2022,04,05,05,45,3.80
2022,04,05,05,46,3.00
2022,04,05,05,47,2.20
2022,04,05,05,48,2.50
2022,04,05,05,49,2.70
2022,04,05,05,50,3.50
2022,04,05,05,51,3.40
2022,04,05,05,52,5.90
2022,04,05,05,53,4.60
2022,04,05,05,54,4.70
2022,04,05,05,55,5.80
2022,04,05,05,56,6.40
2022,04,05,05,57,4.10
2022,04,05,05,58,5.30
2022,04,05,05,59,3.80
2022,04,05,06,00,3.00
2022,04,05,06,01,2.90
2022,04,05,06,02,3.60
2022,04,05,06,03,1.60
2022,04,05,06,04,0.30
2022,04,05,06,05,0.00
2022,04,05,06,06,0.00
2022,04,05,06,07,0.00
2022,04,05,06,08,0.00
2022,04,05,06,09,2.90
2022,04,05,06,10,4.60
2022,04,05,06,11,3.80
2022,04,05,06,12,2.70
2022,04,05,06,13,3.80
2022,04,05,06,14,2.00
2022,04,05,06,15,0.80
2022,04,05,06,16,0.50
2022,04,05,06,17,0.10
2022,04,05,06,18,0.10
2022,04,05,06,19,0.20
2022,04,05,06,20,2.30
2022,04,05,06,21,3.80
2022,04,05,06,22,2.30
2022,04,05,06,23,1.20
2022,04,05,06,24,1.40
2022,04,05,06,25,4.90
2022,04,05,06,26,7.00
2022,04,05,06,27,8.70
2022,04,05,06,28,3.90
2022,04,05,06,29,5.30
2022,04,05,06,30,3.10
2022,04,05,06,31,4.30
2022,04,05,06,32,5.80
2022,04,05,06,33,3.80
2022,04,05,06,34,4.60
2022,04,05,06,35,5.30
2022,04,05,06,36,4.30
2022,04,05,06,37,3.00
2022,04,05,06,38,5.30
2022,04,05,06,39,6.60
2022,04,05,06,40,4.20
2022,04,05,06,41,6.40
2022,04,05,06,42,5.10
2022,04,05,06,43,7.10
2022,04,05,06,44,7.80
2022,04,05,06,45,5.70
2022,04,05,06,46,5.90
2022,04,05,06,47,7.50
2022,04,05,06,48,7.60
2022,04,05,06,49,10.30
2022,04,05,06,50,5.60
2022,04,05,06,51,6.00
2022,04,05,06,52,7.10
2022,04,05,06,53,9.70
2022,04,05,06,54,7.80
2022,04,05,06,55,10.00
2022,04,05,06,56,9.60
2022,04,05,06,57,9.60
2022,04,05,06,58,9.60
2022,04,05,06,59,9.60
2022,04,05,07,00,7.40
2022,04,05,07,01,11.80
2022,04,05,07,02,13.50
2022,04,05,07,03,12.20
2022,04,05,07,04,4.20
2022,04,05,07,05,8.00
2022,04,05,07,06,7.50
2022,04,05,07,07,7.80
2022,04,05,07,08,4.30
2022,04,05,07,09,6.70
2022,04,05,07,10,5.10
2022,04,05,07,11,6.00
2022,04,05,07,12,7.40
2022,04,05,07,13,8.00
2022,04,05,07,14,5.00
2022,04,05,07,15,5.80
2022,04,05,07,16,6.00
2022,04,05,07,17,5.00
2022,04,05,07,18,7.30
2022,04,05,07,19,6.10
2022,04,05,07,20,10.00
2022,04,05,07,21,7.20
2022,04,05,07,22,6.50
2022,04,05,07,23,6.30
2022,04,05,07,24,7.00
2022,04,05,07,25,4.40
2022,04,05,07,26,10.00
2022,04,05,07,27,14.20
2022,04,05,07,28,7.80
2022,04,05,07,29,6.10
2022,04,05,07,30,3.40
2022,04,05,07,31,10.20
2022,04,05,07,32,17.70
2022,04,05,07,33,16.00
2022,04,05,07,34,10.60
2022,04,05,07,35,8.20
2022,04,05,07,36,10.90
2022,04,05,07,37,15.40
2022,04,05,07,38,9.30
2022,04,05,07,39,13.20
2022,04,05,07,40,13.20
2022,04,05,07,41,11.70
2022,04,05,07,42,8.20
2022,04,05,07,43,7.30
2022,04,05,07,44,7.10
2022,04,05,07,45,7.40
2022,04,05,07,46,6.80
2022,04,05,07,47,5.20
2022,04,05,07,48,10.40
2022,04,05,07,49,10.50
2022,04,05,07,50,8.50
2022,04,05,07,51,5.50
2022,04,05,07,52,6.10
2022,04,05,07,53,7.50
2022,04,05,07,54,10.50
2022,04,05,07,55,10.10
2022,04,05,07,56,15.90
2022,04,05,07,57,11.70
2022,04,05,07,58,11.80
2022,04,05,07,59,10.10
2022,04,05,08,00,9.30
2022,04,05,08,01,10.10
2022,04,05,08,02,10.10
2022,04,05,08,03,6.40
2022,04,05,08,04,8.90
2022,04,05,08,05,10.80
2022,04,05,08,06,9.30
2022,04,05,08,07,15.10
2022,04,05,08,08,9.20
2022,04,05,08,09,13.90
2022,04,05,08,10,12.30
2022,04,05,08,11,12.60
2022,04,05,08,12,8.60
2022,04,05,08,13,11.80
2022,04,05,08,14,8.40
2022,04,05,08,15,17.20
2022,04,05,08,16,10.40
2022,04,05,08,17,5.70
2022,04,05,08,18,6.80
2022,04,05,08,19,11.70
2022,04,05,08,20,6.20
2022,04,05,08,21,7.00
2022,04,05,08,22,10.70
2022,04,05,08,23,6.80
2022,04,05,08,24,7.00
2022,04,05,08,25,9.50
2022,04,05,08,26,10.40
2022,04,05,08,27,7.70
2022,04,05,08,28,11.00
2022,04,05,08,29,11.30
2022,04,05,08,30,15.20
2022,04,05,08,31,11.50
2022,04,05,08,32,15.40
2022,04,05,08,33,13.40
2022,04,05,08,34,12.60
2022,04,05,08,35,8.40
2022,04,05,08,36,14.80
2022,04,05,08,37,9.20
2022,04,05,08,38,6.80
2022,04,05,08,39,11.80
2022,04,05,08,40,15.30
2022,04,05,08,41,8.70
2022,04,05,08,42,10.30
2022,04,05,08,43,16.70
2022,04,05,08,44,8.50
2022,04,05,08,45,5.50
2022,04,05,08,46,7.60
2022,04,05,08,47,7.20
2022,04,05,08,48,11.00
2022,04,05,08,49,15.30
2022,04,05,08,50,6.00
2022,04,05,08,51,7.70
2022,04,05,08,52,7.80
2022,04,05,08,53,7.20
2022,04,05,08,54,9.10
2022,04,05,08,55,7.50
2022,04,05,08,56,11.80
2022,04,05,08,57,14.30
2022,04,05,08,58,9.30
2022,04,05,08,59,7.60
2022,04,05,09,00,8.20
2022,04,05,09,01,10.30
2022,04,05,09,02,8.10
2022,04,05,09,03,8.90
2022,04,05,09,04,7.30
2022,04,05,09,05,7.40
2022,04,05,09,06,8.60
2022,04,05,09,07,7.70
2022,04,05,09,08,10.30
2022,04,05,09,09,8.00
2022,04,05,09,10,13.40
2022,04,05,09,11,8.20
2022,04,05,09,12,10.40
2022,04,05,09,13,14.50
2022,04,05,09,14,9.20
2022,04,05,09,15,9.10
2022,04,05,09,16,7.50
2022,04,05,09,17,11.80
2022,04,05,09,18,6.70
2022,04,05,09,19,9.40
2022,04,05,09,20,8.70
2022,04,05,09,21,12.00
2022,04,05,09,22,9.90
2022,04,05,09,23,4.80
2022,04,05,09,24,9.50
2022,04,05,09,25,8.60
2022,04,05,09,26,7.80
2022,04,05,09,27,10.10
2022,04,05,09,28,7.00
2022,04,05,09,29,15.10
2022,04,05,09,30,9.40
2022,04,05,09,31,11.90
2022,04,05,09,32,8.70
2022,04,05,09,33,8.30
2022,04,05,09,34,9.10
2022,04,05,09,35,8.30
2022,04,05,09,36,12.70
2022,04,05,09,37,9.50
2022,04,05,09,38,14.70
2022,04,05,09,39,16.70
2022,04,05,09,40,20.00
2022,04,05,09,41,11.30
2022,04,05,09,42,8.10
2022,04,05,09,43,8.90
2022,04,05,09,44,9.10
2022,04,05,09,45,12.10
2022,04,05,09,46,15.80
2022,04,05,09,47,14.20
2022,04,05,09,48,8.50
2022,04,05,09,49,10.00
2022,04,05,09,50,13.40
2022,04,05,09,51,10.10
2022,04,05,09,52,11.70
2022,04,05,09,53,11.20
2022,04,05,09,54,19.30
2022,04,05,09,55,18.70
2022,04,05,09,56,15.20
2022,04,05,09,57,14.40
2022,04,05,09,58,14.30
2022,04,05,09,59,15.90
2022,04,05,10,00,13.50
2022,04,05,10,01,13.00
2022,04,05,10,02,16.70
2022,04,05,10,03,16.90
2022,04,05,10,04,11.60
2022,04,05,10,05,8.80
2022,04,05,10,06,21.60
2022,04,05,10,07,18.80
2022,04,05,10,08,14.20
2022,04,05,10,09,10.20
2022,04,05,10,10,12.30
2022,04,05,10,11,9.50
2022,04,05,10,12,6.40
2022,04,05,10,13,9.80
2022,04,05,10,14,19.10
2022,04,05,10,15,9.00
2022,04,05,10,16,6.30
2022,04,05,10,17,8.90
2022,04,05,10,18,9.30
2022,04,05,10,19,8.20
2022,04,05,10,20,10.30
2022,04,05,10,21,9.50
2022,04,05,10,22,16.00
2022,04,05,10,23,14.30
2022,04,05,10,24,10.50
2022,04,05,10,25,12.80
2022,04,05,10,26,10.00
2022,04,05,10,27,12.90
2022,04,05,10,28,9.30
2022,04,05,10,29,9.80
2022,04,05,10,30,18.80
2022,04,05,10,31,10.90
2022,04,05,10,32,10.30
2022,04,05,10,33,7.90
2022,04,05,10,34,8.90
2022,04,05,10,35,11.40
2022,04,05,10,36,19.70
2022,04,05,10,37,10.70
2022,04,05,10,38,8.30
2022,04,05,10,39,9.90
2022,04,05,10,40,12.50
2022,04,05,10,41,5.60
2022,04,05,10,42,8.30
2022,04,05,10,43,8.40
2022,04,05,10,44,8.10
2022,04,05,10,45,12.80
2022,04,05,10,46,9.30
2022,04,05,10,47,16.10
2022,04,05,10,48,13.60
2022,04,05,10,49,16.20
2022,04,05,10,50,19.20
2022,04,05,10,51,19.70
2022,04,05,10,52,17.40
2022,04,05,10,53,14.10
2022,04,05,10,54,13.90
2022,04,05,10,55,16.60
2022,04,05,10,56,18.70
2022,04,05,10,57,18.10
2022,04,05,10,58,16.90
2022,04,05,10,59,17.50
2022,04,05,11,00,14.60
2022,04,05,11,01,11.30
2022,04,05,11,02,9.70
2022,04,05,11,03,10.20
2022,04,05,11,04,20.70
2022,04,05,11,05,13.90
2022,04,05,11,06,14.20
2022,04,05,11,07,19.90
2022,04,05,11,08,16.70
2022,04,05,11,09,17.50
2022,04,05,11,10,14.40
2022,04,05,11,11,15.30
2022,04,05,11,12,10.20
2022,04,05,11,13,10.70
2022,04,05,11,14,9.90
2022,04,05,11,15,13.00
2022,04,05,11,16,9.90
2022,04,05,11,17,11.50
2022,04,05,11,18,7.70
2022,04,05,11,19,10.10
2022,04,05,11,20,8.20
2022,04,05,11,21,4.50
2022,04,05,11,22,7.80
2022,04,05,11,23,10.40
2022,04,05,11,24,9.30
2022,04,05,11,25,11.40
2022,04,05,11,26,12.60
2022,04,05,11,27,13.60
2022,04,05,11,28,7.30
2022,04,05,11,29,12.50
2022,04,05,11,30,10.30
2022,04,05,11,31,8.10
2022,04,05,11,32,7.10
2022,04,05,11,33,10.30
2022,04,05,11,34,9.20
2022,04,05,11,35,7.10
2022,04,05,11,36,3.30
2022,04,05,11,37,2.60
2022,04,05,11,38,9.90
2022,04,05,11,39,11.00
2022,04,05,11,40,4.60
2022,04,05,11,41,7.90
2022,04,05,11,42,9.80
2022,04,05,11,43,9.70
2022,04,05,11,44,15.40
2022,04,05,11,45,10.70
2022,04,05,11,46,6.40
2022,04,05,11,47,11.00
2022,04,05,11,48,8.30
2022,04,05,11,49,11.00
2022,04,05,11,50,11.20
2022,04,05,11,51,11.60
2022,04,05,11,52,10.80
2022,04,05,11,53,14.50
2022,04,05,11,54,11.00
2022,04,05,11,55,7.60
2022,04,05,11,56,15.20
2022,04,05,11,57,9.20
2022,04,05,11,58,11.80
2022,04,05,11,59,10.70
2022,04,05,12,00,6.10
2022,04,05,12,01,11.80
2022,04,05,12,02,9.20
2022,04,05,12,03,18.20
2022,04,05,12,04,13.00
2022,04,05,12,05,14.70
2022,04,05,12,06,15.90
2022,04,05,12,07,12.10
2022,04,05,12,08,14.50
2022,04,05,12,09,13.40
2022,04,05,12,10,13.00
2022,04,05,12,11,10.20
2022,04,05,12,12,8.90
2022,04,05,12,13,6.70
2022,04,05,12,14,9.60
2022,04,05,12,15,11.70
2022,04,05,12,16,11.70
2022,04,05,12,17,15.40
2022,04,05,12,18,12.60
2022,04,05,12,19,13.40
2022,04,05,12,20,7.80
2022,04,05,12,21,13.40
2022,04,05,12,22,13.00
2022,04,05,12,23,8.50
2022,04,05,12,24,12.60
2022,04,05,12,25,11.70
2022,04,05,12,26,15.30
2022,04,05,12,27,12.90
2022,04,05,12,28,10.70
2022,04,05,12,29,8.90
2022,04,05,12,30,10.80
2022,04,05,12,31,7.20
2022,04,05,12,32,10.90
2022,04,05,12,33,9.60
2022,04,05,12,34,9.50
2022,04,05,12,35,12.40
2022,04,05,12,36,9.90
2022,04,05,12,37,15.10
2022,04,05,12,38,15.50
2022,04,05,12,39,9.50
2022,04,05,12,40,17.40
2022,04,05,12,41,14.80
2022,04,05,12,42,10.80
2022,04,05,12,43,9.20
2022,04,05,12,44,11.60
2022,04,05,12,45,10.30
2022,04,05,12,46,8.60
2022,04,05,12,47,17.50
2022,04,05,12,48,10.20
2022,04,05,12,49,9.40
2022,04,05,12,50,11.80
2022,04,05,12,51,17.80
2022,04,05,12,52,11.30
2022,04,05,12,53,7.60
2022,04,05,12,54,15.00
2022,04,05,12,55,10.20
2022,04,05,12,56,7.90
2022,04,05,12,57,11.10
2022,04,05,12,58,13.00
2022,04,05,12,59,12.60
2022,04,05,13,00,10.20
2022,04,05,13,01,6.40
2022,04,05,13,02,8.60
2022,04,05,13,03,12.60
2022,04,05,13,04,9.70
2022,04,05,13,05,8.20
2022,04,05,13,06,12.20
2022,04,05,13,07,8.60
2022,04,05,13,08,8.30
2022,04,05,13,09,10.30
2022,04,05,13,10,11.40
2022,04,05,13,11,11.40
2022,04,05,13,12,11.90
2022,04,05,13,13,13.40
2022,04,05,13,14,12.70
2022,04,05,13,15,9.90
2022,04,05,13,16,13.20
2022,04,05,13,17,18.50
2022,04,05,13,18,16.40
2022,04,05,13,19,12.40
2022,04,05,13,20,9.90
2022,04,05,13,21,13.80
2022,04,05,13,22,9.00
2022,04,05,13,23,15.40
2022,04,05,13,24,14.80
2022,04,05,13,25,14.90
2022,04,05,13,26,20.00
2022,04,05,13,27,11.60
2022,04,05,13,28,17.20
2022,04,05,13,29,17.90
2022,04,05,13,30,10.20
2022,04,05,13,31,8.70
2022,04,05,13,32,12.30
2022,04,05,13,33,15.80
2022,04,05,13,34,10.60
2022,04,05,13,35,16.00
2022,04,05,13,36,15.20
2022,04,05,13,37,11.30
2022,04,05,13,38,12.10
2022,04,05,13,39,13.70
2022,04,05,13,40,10.50
2022,04,05,13,41,10.40
2022,04,05,13,42,10.70
2022,04,05,13,43,9.80
2022,04,05,13,44,6.60
2022,04,05,13,45,10.10
2022,04,05,13,46,8.60
2022,04,05,13,47,9.40
2022,04,05,13,48,5.90
2022,04,05,13,49,9.20
2022,04,05,13,50,7.70
2022,04,05,13,51,9.30
2022,04,05,13,52,11.70
2022,04,05,13,53,16.00
2022,04,05,13,54,10.70
2022,04,05,13,55,15.00
2022,04,05,13,56,9.80
2022,04,05,13,57,9.70
2022,04,05,13,58,12.20
2022,04,05,13,59,9.00
2022,04,05,14,00,8.60
2022,04,05,14,01,10.90
2022,04,05,14,02,6.60
2022,04,05,14,03,4.40
2022,04,05,14,04,7.10
2022,04,05,14,05,4.20
2022,04,05,14,06,6.40
2022,04,05,14,07,4.30
2022,04,05,14,08,4.10
2022,04,05,14,09,3.50
2022,04,05,14,10,4.20
2022,04,05,14,11,3.90
2022,04,05,14,12,2.30
2022,04,05,14,13,5.10
2022,04,05,14,14,4.90
2022,04,05,14,15,6.90
2022,04,05,14,16,5.20
2022,04,05,14,17,9.90
2022,04,05,14,18,10.20
2022,04,05,14,19,9.90
2022,04,05,14,20,14.10
2022,04,05,14,21,15.30
2022,04,05,14,22,7.20
2022,04,05,14,23,6.70
2022,04,05,14,24,8.70
2022,04,05,14,25,10.30
2022,04,05,14,26,8.70
2022,04,05,14,27,6.90
2022,04,05,14,28,8.10
2022,04,05,14,29,8.10
2022,04,05,14,30,10.80
2022,04,05,14,31,9.90
2022,04,05,14,32,6.50
2022,04,05,14,33,11.80
2022,04,05,14,34,10.50
2022,04,05,14,35,17.30
2022,04,05,14,36,15.80
2022,04,05,14,37,12.40
2022,04,05,14,38,16.20
2022,04,05,14,39,14.60
2022,04,05,14,40,13.80
2022,04,05,14,41,11.60
2022,04,05,14,42,15.50
2022,04,05,14,43,12.20
2022,04,05,14,44,16.30
2022,04,05,14,45,9.60
2022,04,05,14,46,9.50
2022,04,05,14,47,12.60
2022,04,05,14,48,8.30
2022,04,05,14,49,10.40
2022,04,05,14,50,6.70
2022,04,05,14,51,13.40
2022,04,05,14,52,12.30
2022,04,05,14,53,8.90
2022,04,05,14,54,6.40
2022,04,05,14,55,7.40
2022,04,05,14,56,9.60
2022,04,05,14,57,10.50
2022,04,05,14,58,8.00
2022,04,05,14,59,16.50
2022,04,05,15,00,11.30
2022,04,05,15,01,14.20
2022,04,05,15,02,16.70
2022,04,05,15,03,11.60
2022,04,05,15,04,8.00
2022,04,05,15,05,6.90
2022,04,05,15,06,12.30
2022,04,05,15,07,10.80
2022,04,05,15,08,7.60
2022,04,05,15,09,8.60
2022,04,05,15,10,7.60
2022,04,05,15,11,11.20
2022,04,05,15,12,11.20
2022,04,05,15,13,9.60
2022,04,05,15,14,12.10
2022,04,05,15,15,13.90
2022,04,05,15,16,9.80
2022,04,05,15,17,9.70
2022,04,05,15,18,11.20
2022,04,05,15,19,9.30
2022,04,05,15,20,9.20
2022,04,05,15,21,4.40
2022,04,05,15,22,4.20
2022,04,05,15,23,5.10
2022,04,05,15,24,7.70
2022,04,05,15,25,12.60
2022,04,05,15,26,7.50
2022,04,05,15,27,9.20
2022,04,05,15,28,13.40
2022,04,05,15,29,14.30
2022,04,05,15,30,9.70
2022,04,05,15,31,6.70
2022,04,05,15,32,5.10
2022,04,05,15,33,5.60
2022,04,05,15,34,3.40
2022,04,05,15,35,8.50
2022,04,05,15,36,5.90
2022,04,05,15,37,5.10
2022,04,05,15,38,5.60
2022,04,05,15,39,5.40
2022,04,05,15,40,4.30
2022,04,05,15,41,8.10
2022,04,05,15,42,5.60
2022,04,05,15,43,5.10
2022,04,05,15,44,4.20
2022,04,05,15,45,5.50
2022,04,05,15,46,5.00
2022,04,05,15,47,3.50
2022,04,05,15,48,7.60
2022,04,05,15,49,6.80
2022,04,05,15,50,2.50
2022,04,05,15,51,6.00
2022,04,05,15,52,8.00
2022,04,05,15,53,3.80
2022,04,05,15,54,2.80
2022,04,05,15,55,5.30
2022,04,05,15,56,6.40
2022,04,05,15,57,4.30
2022,04,05,15,58,8.50
2022,04,05,15,59,3.60
2022,04,05,16,00,4.10
2022,04,05,16,01,8.00
2022,04,05,16,02,8.30
2022,04,05,16,03,4.10
2022,04,05,16,04,7.70
2022,04,05,16,05,4.30
2022,04,05,16,06,3.80
2022,04,05,16,07,2.40
2022,04,05,16,08,3.10
2022,04,05,16,09,6.70
2022,04,05,16,10,5.60
2022,04,05,16,11,6.00
2022,04,05,16,12,2.60
2022,04,05,16,13,3.60
2022,04,05,16,14,3.70
2022,04,05,16,15,1.90
2022,04,05,16,16,2.30
2022,04,05,16,17,2.60
2022,04,05,16,18,4.30
2022,04,05,16,19,6.80
2022,04,05,16,20,7.40
2022,04,05,16,21,3.90
2022,04,05,16,22,4.00
2022,04,05,16,23,1.60
2022,04,05,16,24,6.60
2022,04,05,16,25,6.80
2022,04,05,16,26,5.10
2022,04,05,16,27,1.70
2022,04,05,16,28,1.90
2022,04,05,16,29,3.90
2022,04,05,16,30,5.40
2022,04,05,16,31,10.10
2022,04,05,16,32,3.90
2022,04,05,16,33,4.60
2022,04,05,16,34,5.50
2022,04,05,16,35,7.00
2022,04,05,16,36,8.10
2022,04,05,16,37,5.80
2022,04,05,16,38,8.00
2022,04,05,16,39,9.70
2022,04,05,16,40,6.50
2022,04,05,16,41,6.40
2022,04,05,16,42,6.80
2022,04,05,16,43,10.40
2022,04,05,16,44,9.00
2022,04,05,16,45,12.30
2022,04,05,16,46,10.30
2022,04,05,16,47,4.40
2022,04,05,16,48,4.10
2022,04,05,16,49,5.70
2022,04,05,16,50,5.80
2022,04,05,16,51,8.00
2022,04,05,16,52,10.00
2022,04,05,16,53,13.90
2022,04,05,16,54,9.60
2022,04,05,16,55,8.60
2022,04,05,16,56,6.50
2022,04,05,16,57,5.00
2022,04,05,16,58,4.90
2022,04,05,16,59,9.60
2022,04,05,17,00,7.60
2022,04,05,17,01,7.40
2022,04,05,17,02,2.90
2022,04,05,17,03,1.20
2022,04,05,17,04,1.90
2022,04,05,17,05,4.30
2022,04,05,17,06,4.80
2022,04,05,17,07,6.80
2022,04,05,17,08,6.00
2022,04,05,17,09,4.90
2022,04,05,17,10,3.60
2022,04,05,17,11,4.60
2022,04,05,17,12,6.20
2022,04,05,17,13,9.60
2022,04,05,17,14,4.50
2022,04,05,17,15,9.30
2022,04,05,17,16,7.30
2022,04,05,17,17,7.30
2022,04,05,17,18,4.70
2022,04,05,17,19,9.50
2022,04,05,17,20,10.30
2022,04,05,17,21,6.50
2022,04,05,17,22,5.10
2022,04,05,17,23,4.50
2022,04,05,17,24,4.40
2022,04,05,17,25,6.50
2022,04,05,17,26,7.80
2022,04,05,17,27,9.90
2022,04,05,17,28,8.10
2022,04,05,17,29,8.20
2022,04,05,17,30,7.20
2022,04,05,17,31,7.50
2022,04,05,17,32,11.80
2022,04,05,17,33,9.30
2022,04,05,17,34,8.70
2022,04,05,17,35,8.20
2022,04,05,17,36,6.50
2022,04,05,17,37,8.40
2022,04,05,17,38,6.00
2022,04,05,17,39,5.50
2022,04,05,17,40,9.20
2022,04,05,17,41,6.70
2022,04,05,17,42,5.50
2022,04,05,17,43,5.70
2022,04,05,17,44,5.50
2022,04,05,17,45,7.00
2022,04,05,17,46,7.30
2022,04,05,17,47,5.30
2022,04,05,17,48,3.60
2022,04,05,17,49,4.30
2022,04,05,17,50,5.80
2022,04,05,17,51,8.70
2022,04,05,17,52,10.90
2022,04,05,17,53,7.20